アフリカーノ彗星

C/2018 V4 ( Africano )

English version
Home page
Updated on May 20, 2019

---------------------------------------------------------------------

・ プロフィール

発見日 2018年11月4日
発見光度 19.7等
発見者 Brian M. Africano (Mount Lemmon)

・ 写真集

・ 軌道要素

Epoch 2019 Mar. 18.0 TT = JDT 2458560.5
T 2019 Mar. 1.66723 TT                                  MPCW
q   3.1991044            (2000.0)            P               Q
z  +0.0046500      Peri.    0.00179     +0.20137500     -0.35094015
 +/-0.0000410      Node    78.38198     +0.89867511     -0.30520178
e   0.9851241      Incl.   69.00575     +0.38965517     +0.88526430
From 152 observations 2018 Oct. 23-2019 Jan. 8, mean residual 0".6.

・ 光度変化

        m1 = 12.2 + 5 logΔ + 10.0 log r

---------------------------------------------------------------------

軌道要素はM.P.E.C. 2019-J142に掲載されたものです。
光度グラフはComet for Windowsで作成したものです。

---------------------------------------------------------------------

Copyright(C) Seiichi Yoshida (comet@aerith.net). All rights reserved.